sat.trackr.live / text

‹ back to catalog

STARLINK-35166

NORAD 65499 · 2025-198H

PAYLOAD ACTIVE UNKNOWN

§ Identity

Operator
Country
US
Launch date
2025-09-05
Launch site
AFETR
Launch vehicle
Mass (kg)
RCS (m²)

Purposes: comms

External: N2YO · Heavens-Above · Gunter

§ Orbital elements

Epoch: 2026-05-24T20:00:29.194272Z

Period
94.10 min
Inclination
53.1604°
Eccentricity
0.0001005
Mean motion
15.30207331 rev/d
Perigee alt
474.5 km
Apogee alt
475.9 km
Semi-major
6,853.3 km
B*
7.9108e-4
RAAN
277.6289°
Arg perigee
88.3264°
Mean anomaly
271.7851°
Rev number
4,027

§ Raw data

STARLINK-351661 65499U 25198H   26144.83367123  .00023149  00000+0  79108-3 0  99942 65499  53.1604 277.6289 0001005  88.3264 271.7851 15.30207331 40271

JSON: /api/v1/satellites/65499 · /tle

For live sub-satellite position, see the globe view (requires WebGL).

§ Visibility from observer

Set your observer location to see the next 7 days of passes ≥ 10°. The values pass through the URL so the page stays shareable.

No JS? Fill the form by hand. The geolocation button needs JavaScript.